Weather History for Heber, UT

Change the Weather History Date:

Wednesday, June 27, 2012

  Actual Average (KPVU) Record (KPVU)
Temperature  
Mean Temperature 64 °F -  
Max Temperature 87 °F 85 °F 98 °F (2013)
Min Temperature 42 °F 53 °F 48 °F (2003)
Growing Degree Days 14 (Base 50)    
Moisture  
Dew Point 29 °F    
Average Humidity 32    
Maximum Humidity 66    
Minimum Humidity 9    
Precipitation  
Precipitation 0.00 in - - ()
Sea Level Pressure  
Sea Level Pressure 30.06 in    
Wind  
Wind Speed 5 mph (SW)    
Max Wind Speed 26 mph    
Max Gust Speed 37 mph    
Visibility 10 miles    
Events      
Averages and records for this station are not official NWS values.
T = Trace of Precipitation, MM = Missing Value Source: NWS Daily Summary

Daily Weather History Graph

Daily Weather History Graph

Search for Another Location

Airport:

Trip Planner

Search our weather history database for the weather conditions in past years. The results will help you decide how hot, cold, wet, or windy it might be!

Date:

Astronomy

Jun. 27, 2012 Rise Set
Actual Time 5:57 AM MDT 9:00 PM MDT
Civil Twilight 5:24 AM MDT 9:33 PM MDT
Nautical Twilight 4:42 AM MDT 10:15 PM MDT
Astronomical Twilight 3:52 AM MDT 11:05 PM MDT
Moon 2:27 PM MDT (6/27) 12:59 AM MDT (6/27)
Length of Visible Light 16h 09m
Length of Day
15h 02m
First Quarter, 57% of the Moon is Illuminated
Jun 27
First Quarter
Jul 3
Full
Jul 10
Last Quarter
Jul 18
New
Jul 26
First Quarter

Hourly Weather History & Observations

Time (MDT) Temp. Windchill Dew Point Humidity Pressure Visibility Wind Dir Wind Speed Gust Speed Precip Events Conditions
12:15 AM 53.6 °F - 32.0 °F 44% 29.96 in 10.0 mi NNE 3.5 mph - N/A   Clear
12:35 AM 51.8 °F - 32.0 °F 47% 29.97 in 10.0 mi Calm Calm - N/A   Clear
12:55 AM 50.0 °F - 30.2 °F 47% 29.98 in 10.0 mi East 3.5 mph - N/A   Clear
1:15 AM 50.0 °F - 32.0 °F 50% 29.99 in 10.0 mi ESE 4.6 mph - N/A   Clear
1:35 AM 50.0 °F - 32.0 °F 50% 30.00 in 10.0 mi SE 3.5 mph - N/A   Clear
1:55 AM 53.6 °F - 30.2 °F 41% 30.00 in 10.0 mi Calm Calm - N/A   Clear
2:15 AM 51.8 °F - 32.0 °F 47% 30.01 in 10.0 mi Calm Calm - N/A   Clear
2:35 AM 51.8 °F - 32.0 °F 47% 30.01 in 10.0 mi Calm Calm - N/A   Clear
2:55 AM 51.8 °F - 32.0 °F 47% 30.02 in 10.0 mi Calm Calm - N/A   Clear
3:15 AM 48.2 °F - 32.0 °F 54% 30.02 in 10.0 mi Calm Calm - N/A   Clear
3:35 AM 42.8 °F 41.1 °F 32.0 °F 66% 30.03 in 10.0 mi SSE 3.5 mph - N/A   Clear
3:55 AM 42.8 °F - 32.0 °F 66% 30.03 in 10.0 mi Calm Calm - N/A   Clear
4:15 AM 42.8 °F - 32.0 °F 66% 30.05 in 10.0 mi Calm Calm - N/A   Clear
4:35 AM 42.8 °F - 32.0 °F 66% 30.05 in 10.0 mi Calm Calm - N/A   Clear
4:55 AM 42.8 °F - 32.0 °F 66% 30.05 in 10.0 mi Calm Calm - N/A   Clear
5:15 AM 46.4 °F - 32.0 °F 57% 30.06 in 10.0 mi Calm Calm - N/A   Clear
5:35 AM 44.6 °F 42.2 °F 32.0 °F 61% 30.07 in 10.0 mi SW 4.6 mph - N/A   Clear
5:55 AM 44.6 °F - 32.0 °F 61% 30.08 in 10.0 mi Calm Calm - N/A   Clear
6:15 AM 44.6 °F - 32.0 °F 61% 30.09 in 10.0 mi Calm Calm - N/A   Clear
6:55 AM 46.4 °F - 32.0 °F 57% 30.10 in 7.0 mi Calm Calm - N/A   Clear
7:15 AM 50.0 °F - 32.0 °F 50% 30.11 in 10.0 mi Calm Calm - N/A   Clear
7:35 AM 50.0 °F - 33.8 °F 54% 30.11 in 10.0 mi Calm Calm - N/A   Clear
7:55 AM 51.8 °F - 33.8 °F 50% 30.11 in 10.0 mi West 4.6 mph - N/A   Clear
8:15 AM 53.6 °F - 32.0 °F 44% 30.11 in 10.0 mi West 3.5 mph - N/A   Clear
8:35 AM 55.4 °F - 30.2 °F 38% 30.12 in 10.0 mi WNW 3.5 mph - N/A   Clear
8:55 AM 55.4 °F - 32.0 °F 41% 30.12 in 10.0 mi Calm Calm - N/A   Clear
9:15 AM 59.0 °F - 32.0 °F 36% 30.11 in 10.0 mi Calm Calm - N/A   Clear
9:35 AM 60.8 °F - 32.0 °F 34% 30.11 in 10.0 mi West 3.5 mph - N/A   Clear
9:55 AM 62.6 °F - 30.2 °F 30% 30.11 in 10.0 mi Calm Calm - N/A   Clear
10:15 AM 64.4 °F - 30.2 °F 28% 30.11 in 10.0 mi Calm Calm - N/A   Clear
10:35 AM 68.0 °F - 32.0 °F 26% 30.11 in 10.0 mi Calm Calm - N/A   Clear
10:55 AM 69.8 °F - 32.0 °F 25% 30.11 in 10.0 mi Calm Calm - N/A   Clear
11:15 AM 71.6 °F - 32.0 °F 23% 30.10 in 10.0 mi Calm Calm - N/A   Clear
11:35 AM 78.8 °F - 28.4 °F 16% 30.09 in 10.0 mi SW 11.5 mph 17.3 mph N/A   Clear
11:55 AM 82.4 °F - 23.0 °F 11% 30.09 in 10.0 mi WSW 15.0 mph 23.0 mph N/A   Clear
12:15 PM 82.4 °F - 21.2 °F 10% 30.09 in 10.0 mi WSW 26.5 mph 31.1 mph N/A   Clear
12:35 PM 82.4 °F - 21.2 °F 10% 30.09 in 10.0 mi WSW 21.9 mph 29.9 mph N/A   Clear
12:55 PM 82.4 °F - 23.0 °F 11% 30.09 in 10.0 mi WSW 21.9 mph 34.5 mph N/A   Clear
1:15 PM 82.4 °F - 23.0 °F 11% 30.09 in 10.0 mi SW 20.7 mph 36.8 mph N/A   Clear
1:35 PM 84.2 °F - 24.8 °F 11% 30.09 in 10.0 mi WSW 19.6 mph 36.8 mph N/A   Clear
1:55 PM 84.2 °F - 24.8 °F 11% 30.09 in 10.0 mi WSW 25.3 mph 33.4 mph N/A   Clear
2:15 PM 84.2 °F - 26.6 °F 12% 30.08 in 10.0 mi WSW 26.5 mph 35.7 mph N/A   Clear
2:35 PM 86.0 °F - 24.8 °F 11% 30.08 in 10.0 mi WSW 23.0 mph 29.9 mph N/A   Clear
2:55 PM 86.0 °F - 24.8 °F 11% 30.07 in 10.0 mi WSW 24.2 mph 31.1 mph N/A   Clear
3:15 PM 86.0 °F - 23.0 °F 10% 30.07 in 10.0 mi SW 20.7 mph 28.8 mph N/A   Clear
3:35 PM 84.2 °F - 24.8 °F 11% 30.07 in 10.0 mi SW 20.7 mph 28.8 mph N/A   Clear
3:55 PM 84.2 °F - 23.0 °F 11% 30.07 in 10.0 mi SSW 13.8 mph 32.2 mph N/A   Clear
4:15 PM 86.0 °F - 21.2 °F 9% 30.07 in 10.0 mi SW 19.6 mph 31.1 mph N/A   Clear
4:35 PM 86.0 °F - 26.6 °F 12% 30.06 in 10.0 mi SW 21.9 mph 26.5 mph N/A   Clear
4:55 PM 86.0 °F - 23.0 °F 10% 30.06 in 10.0 mi WSW 16.1 mph 26.5 mph N/A   Clear
5:15 PM 86.0 °F - 21.2 °F 9% 30.05 in 10.0 mi South 16.1 mph 27.6 mph N/A   Clear
5:35 PM 87.8 °F - 23.0 °F 9% 30.05 in 10.0 mi SW 11.5 mph 21.9 mph N/A   Clear
5:55 PM 86.0 °F - 26.6 °F 12% 30.04 in 10.0 mi WSW 15.0 mph 21.9 mph N/A   Clear
6:15 PM 86.0 °F - 26.6 °F 12% 30.03 in 10.0 mi SW 11.5 mph 18.4 mph N/A   Clear
6:35 PM 84.2 °F - 28.4 °F 13% 30.03 in 10.0 mi SSW 9.2 mph - N/A   Clear
6:55 PM 84.2 °F - 26.6 °F 12% 30.03 in 10.0 mi SW 3.5 mph - N/A   Clear
7:15 PM 84.2 °F - 26.6 °F 12% 30.03 in 10.0 mi South 4.6 mph - N/A   Clear
7:35 PM 84.2 °F - 26.6 °F 12% 30.03 in 10.0 mi Calm Calm - N/A   Clear
7:55 PM 82.4 °F - 28.4 °F 14% 30.03 in 7.0 mi Calm Calm - N/A   Clear
8:15 PM 78.8 °F - 30.2 °F 17% 30.03 in 10.0 mi Calm Calm - N/A   Clear
8:35 PM 73.4 °F - 33.8 °F 23% 30.03 in 10.0 mi North 9.2 mph - N/A   Clear
8:55 PM 71.6 °F - 32.0 °F 23% 30.04 in 10.0 mi North 8.1 mph - N/A   Clear
9:15 PM 69.8 °F - 32.0 °F 25% 30.05 in 10.0 mi Calm Calm - N/A   Clear
9:35 PM 69.8 °F - 32.0 °F 25% 30.05 in 10.0 mi Calm Calm - N/A   Clear
9:55 PM 68.0 °F - 32.0 °F 26% 30.07 in 10.0 mi Calm Calm - N/A   Clear
10:15 PM 62.6 °F - 32.0 °F 32% 30.08 in 10.0 mi Calm Calm - N/A   Clear
10:35 PM 60.8 °F - 33.8 °F 36% 30.08 in 10.0 mi ESE 3.5 mph - N/A   Clear
10:55 PM 55.4 °F - 35.6 °F 47% 30.09 in 10.0 mi Calm Calm - N/A   Clear
11:15 PM 59.0 °F - 35.6 °F 42% 30.10 in 10.0 mi Calm Calm - N/A   Clear
11:35 PM 55.4 °F - 35.6 °F 47% 30.10 in 10.0 mi South 3.5 mph - N/A   Clear
11:55 PM 55.4 °F - 35.6 °F 47% 30.11 in 10.0 mi ESE 3.5 mph - N/A   Clear